Wind_Speed
28 28 26 25 25 25 25 24 21 20 19 18 17 16 16 15 14 14 13 13 13 12 12 12 11 10 10 10 11 11 12 12 13 13 14 14 14 14 15 15 16 16 16 16
27 26 25 25 25 25 25 24 22 21 20 19 19 18 17 16 16 15 14 13 13 13 12 12 11 11 11 11 12 12 12 13 13 13 13 13 14 14 14 15 15 16 16 16
24 25 25 25 24 24 24 23 22 21 20 20 19 18 17 17 16 16 15 14 14 13 13 13 12 12 12 12 13 13 13 13 13 13 13 14 13 13 14 15 16 16 17 17
24 25 24 23 23 23 22 22 22 22 21 20 18 17 17 17 17 16 15 15 15 14 14 13 14 14 14 13 13 13 14 14 14 14 14 14 14 13 13 14 15 16 17 18
25 23 23 24 22 21 21 21 21 21 20 20 18 17 17 17 17 16 16 15 14 14 14 14 14 14 15 14 14 13 13 14 14 14 13 14 14 14 14 14 15 16 17 18
27 24 21 22 21 21 21 21 20 20 20 19 19 18 18 18 17 17 17 16 15 15 15 14 14 14 14 14 14 14 14 14 14 14 14 14 14 15 15 16 17 17 18 18
28 25 23 23 21 21 20 20 20 20 20 19 20 20 19 19 18 18 18 17 17 17 16 15 15 15 15 15 14 14 15 15 15 15 15 15 15 15 16 16 17 18 19 19
29 27 25 24 22 22 21 21 20 20 20 20 20 20 20 20 20 19 18 18 18 17 16 16 16 16 16 16 16 16 16 16 16 16 16 16 16 17 17 17 18 19 19 20
32 29 28 25 23 22 22 22 22 21 21 21 21 21 21 21 20 19 18 18 18 17 16 16 16 16 17 17 17 17 17 17 17 17 18 18 18 18 19 19 19 19 20 20
32 30 27 25 24 24 23 23 23 23 22 22 22 21 21 21 21 20 19 19 19 17 17 17 17 17 17 18 18 18 18 18 19 19 20 20 20 20 20 20 20 21 21 21
31 30 28 27 26 25 24 24 24 23 22 23 22 22 22 21 21 21 20 20 20 20 19 19 18 18 19 19 19 19 19 20 20 21 21 21 21 21 21 22 22 22 23 23
31 30 29 27 26 25 25 25 25 24 23 23 23 23 23 22 22 22 22 21 21 21 21 20 20 20 20 20 20 20 21 21 22 22 22 22 22 22 23 23 23 23 24 25
31 30 29 28 27 26 26 25 26 26 24 24 24 24 23 23 22 23 23 23 22 22 22 22 22 21 21 21 21 21 21 21 21 22 22 22 22 22 23 23 24 25 25 25
30 30 29 28 28 28 27 26 26 26 25 25 25 25 24 23 23 23 23 23 22 22 22 23 23 22 22 22 22 22 22 22 22 22 23 23 24 24 25 25 25 26 26 26
30 30 30 29 29 28 28 27 27 27 26 26 25 25 24 23 23 23 23 22 22 23 23 24 23 23 23 23 23 23 23 23 23 24 24 25 25 25 26 26 26 27 27 28
30 30 30 30 30 29 29 28 28 28 28 27 25 25 24 24 23 23 24 23 23 23 24 25 24 24 24 24 24 24 24 24 24 25 25 25 25 26 26 27 27 27 28 28
29 30 30 30 30 30 30 29 29 28 27 28 27 26 25 24 24 23 24 23 23 23 24 24 24 24 24 25 25 25 24 24 25 25 25 25 25 26 26 27 27 27 28 28
29 29 29 29 29 29 29 30 29 28 27 27 27 26 25 25 25 25 24 24 24 25 25 25 24 25 25 25 25 24 24 24 24 25 25 25 26 26 27 27 27 27 28 28
28 28 28 28 28 28 28 29 29 28 28 28 27 26 26 26 25 25 24 24 24 24 24 24 24 24 24 24 24 24 24 24 24 25 25 25 25 26 26 26 27 27 27 26
28 28 28 28 28 27 28 28 28 28 27 26 26 26 25 24 24 24 24 24 23 23 23 23 23 23 23 24 24 24 24 24 24 24 24 24 25 25 26 26 26 26 25 25
28 28 27 27 26 26 26 26 26 25 24 23 23 23 23 23 24 24 24 23 23 23 22 23 23 23 23 23 23 23 23 23 23 23 23 23 23 24 24 24 24 25 24 25
26 26 26 26 25 24 24 24 24 23 22 22 22 21 22 22 23 23 23 23 23 23 22 22 22 22 22 22 22 22 21 22 22 22 22 22 22 23 23 24 24 25 25 25
24 24 24 24 24 23 22 22 22 21 21 22 21 21 22 22 22 22 22 22 22 21 21 21 21 20 20 20 21 20 20 21 21 21 22 22 22 23 24 24 24 25 25 25
23 23 22 22 23 22 21 21 21 21 21 21 21 20 21 21 21 21 20 20 20 20 20 20 20 19 19 20 20 20 20 20 21 21 22 22 23 23 24 24 24 24 25 25
23 23 22 22 22 21 21 21 21 21 20 21 20 20 20 19 19 18 18 18 18 19 19 19 19 18 18 19 19 19 20 20 21 21 22 22 22 23 23 23 23 24 25 25
23 22 21 20 20 20 20 20 20 20 19 19 19 19 19 18 18 17 18 18 17 17 17 17 17 17 17 18 18 19 20 20 21 22 22 22 22 23 23 23 24 24 24 24
22 22 21 20 19 18 18 18 18 18 18 18 17 18 18 17 17 17 17 17 16 16 16 16 16 16 17 17 18 19 20 20 21 21 21 22 23 24 24 24 24 24 25 25
Wind_Direction
222 227 229 229 229 228 229 229 233 238 239 240 243 243 245 250 254 261 267 268 267 269 271 270 271 274 278 283 282 279 280 285 287 288 287 285 286 282 277 275 276 278 278 278
222 225 227 227 227 228 228 229 231 234 237 239 242 243 243 247 253 258 263 267 266 266 267 267 269 271 273 277 280 282 285 287 289 291 292 289 287 285 281 278 276 277 278 281
221 224 226 228 227 229 231 232 233 234 237 238 240 239 240 243 250 255 260 262 266 263 264 265 267 269 271 274 278 280 284 288 290 291 293 295 292 290 287 283 280 279 279 280
219 222 224 228 227 227 229 230 231 232 234 235 235 235 236 240 245 250 255 258 263 264 267 267 266 266 268 272 275 279 283 286 288 291 294 296 297 295 294 291 289 285 283 283
217 222 226 227 225 226 228 229 230 231 232 232 232 232 234 237 243 248 252 256 260 265 266 266 267 267 266 268 272 277 283 286 287 288 291 293 295 296 294 292 292 289 288 285
216 215 223 227 225 226 227 229 228 230 230 231 229 230 233 237 242 246 251 256 261 266 268 267 264 265 267 268 269 274 281 284 287 290 292 294 295 297 295 293 293 292 291 286
217 218 222 223 221 224 226 227 228 230 230 230 229 229 230 233 240 246 248 254 260 263 267 266 264 263 267 269 270 273 278 281 285 289 291 292 295 297 297 297 296 295 294 292
217 219 224 222 221 223 224 225 226 226 228 228 227 229 231 235 240 245 247 252 257 261 264 265 266 268 269 270 270 274 277 280 284 287 289 291 293 295 296 297 297 296 295 294
219 221 224 223 223 224 224 225 226 226 225 225 227 230 231 235 240 244 246 250 255 260 264 267 266 268 270 272 273 275 277 280 283 287 289 291 292 294 295 296 297 298 296 294
223 225 226 224 224 225 226 226 226 226 225 225 227 229 231 235 240 243 246 250 253 259 265 267 269 272 274 273 273 274 276 278 282 286 289 291 291 292 294 296 296 296 295 296
224 227 227 226 225 227 227 226 227 227 227 227 227 231 233 235 240 244 246 250 254 259 263 265 267 270 272 274 273 273 275 278 281 284 287 288 290 292 294 294 295 295 296 296
224 226 227 226 226 227 227 227 227 227 227 228 230 232 234 238 243 247 248 251 255 258 261 263 266 269 271 272 273 275 277 280 282 284 287 288 289 291 292 294 295 295 297 299
223 225 226 226 227 227 227 227 227 228 231 231 231 233 236 240 243 248 249 252 253 257 260 262 264 266 270 273 274 276 279 281 283 286 288 289 290 292 294 295 296 297 297 298
221 223 224 225 226 226 227 227 228 229 232 233 234 237 239 241 244 248 250 252 254 257 260 261 263 266 269 274 276 277 279 281 284 286 287 289 291 292 294 295 296 297 298 300
220 221 223 224 225 225 226 228 229 230 233 234 237 239 239 242 246 249 252 255 256 258 260 261 263 266 269 274 277 278 280 281 283 285 287 288 290 292 293 295 295 296 298 299
219 220 222 223 224 225 226 227 229 231 233 236 237 239 242 244 248 252 254 256 257 260 263 260 261 266 270 274 277 278 279 282 284 286 287 288 290 292 293 295 296 297 297 298
218 219 220 221 222 223 224 226 229 231 233 235 237 241 242 246 248 250 253 256 259 262 264 263 263 266 271 274 276 277 278 281 284 286 288 289 292 294 295 296 297 298 298 299
217 218 218 220 221 222 224 226 229 232 235 236 240 242 244 246 248 250 253 256 260 262 263 264 264 267 270 274 275 276 278 280 283 286 289 291 293 295 296 297 298 299 301 300
215 216 217 217 218 219 222 225 229 232 235 238 241 243 246 246 248 250 253 257 260 262 263 264 267 270 271 272 274 277 279 281 284 287 290 292 293 295 297 298 298 299 300 300
216 217 216 217 218 220 223 225 227 229 233 236 239 242 243 245 247 250 255 258 260 261 263 265 268 269 271 273 274 276 278 280 283 286 289 291 294 297 299 299 299 299 299 299
214 215 215 216 218 220 223 224 225 228 232 236 238 240 243 245 247 250 254 257 259 260 263 266 268 269 271 273 273 275 279 282 284 287 289 293 296 299 301 302 301 301 300 299
211 212 213 214 216 220 223 224 226 230 233 235 238 240 243 245 248 250 253 255 257 260 263 266 268 271 273 273 274 277 282 284 285 287 291 294 296 298 300 301 301 302 304 303
208 210 212 214 217 221 223 226 227 228 229 232 235 240 242 245 247 249 252 253 256 258 261 264 267 268 269 273 277 281 283 285 287 290 293 295 297 298 299 300 300 302 305 305
207 208 210 213 215 219 221 222 223 224 226 229 233 237 239 242 244 246 249 253 256 258 261 263 265 267 270 274 278 282 285 287 290 292 295 297 299 300 300 301 302 304 305 305
207 209 211 213 215 216 218 220 222 225 228 231 234 237 238 241 244 249 254 258 260 261 263 263 265 268 272 275 278 283 287 288 290 293 296 298 300 302 303 303 304 306 307 306
207 208 211 212 213 215 219 220 222 226 230 232 235 237 239 243 248 253 257 259 259 261 262 264 266 269 272 276 281 285 288 290 292 295 297 300 301 303 305 305 305 306 306 306
206 208 208 209 212 214 217 220 223 226 228 230 233 236 239 244 248 253 255 257 258 261 263 265 268 271 275 279 283 286 289 291 294 297 301 302 302 303 303 304 305 305 306 306
Height
5834 5838 5841 5845 5849 5853 5856 5861 5865 5868 5869 5871 5872 5873 5874 5874 5875 5876 5876 5876 5876 5876 5876 5875 5875 5874 5874 5873 5873 5873 5872 5871 5871 5870 5869 5868 5867 5866 5865 5865 5865 5864 5864 5863
5829 5832 5836 5840 5844 5847 5851 5855 5859 5862 5864 5866 5867 5868 5870 5871 5872 5872 5873 5873 5873 5873 5873 5872 5872 5872 5871 5871 5871 5870 5870 5869 5868 5867 5866 5864 5863 5862 5861 5861 5861 5860 5860 5859
5825 5828 5831 5835 5839 5843 5847 5850 5854 5857 5860 5861 5863 5864 5866 5867 5868 5869 5869 5870 5870 5870 5869 5869 5869 5869 5868 5868 5868 5868 5867 5866 5865 5864 5863 5862 5860 5859 5858 5857 5856 5856 5855 5855
5821 5824 5828 5834 5834 5838 5842 5845 5848 5851 5854 5856 5858 5860 5861 5863 5864 5865 5865 5866 5866 5866 5866 5866 5865 5865 5865 5865 5865 5865 5864 5863 5862 5861 5860 5859 5857 5856 5854 5853 5852 5851 5851 5850
5816 5820 5824 5827 5830 5834 5837 5840 5844 5846 5849 5851 5854 5855 5857 5858 5860 5861 5862 5862 5862 5863 5862 5862 5862 5862 5862 5862 5862 5862 5861 5860 5859 5858 5857 5856 5854 5853 5852 5850 5849 5848 5847 5846
5811 5816 5820 5824 5826 5829 5833 5836 5839 5841 5844 5847 5849 5852 5854 5854 5856 5857 5858 5858 5859 5859 5859 5858 5858 5858 5858 5858 5858 5858 5858 5857 5856 5855 5854 5853 5852 5850 5849 5848 5846 5844 5843 5841
5806 5811 5815 5818 5822 5825 5830 5833 5834 5837 5839 5842 5844 5847 5849 5850 5851 5853 5853 5854 5855 5855 5855 5855 5855 5855 5855 5855 5855 5855 5854 5854 5853 5852 5851 5850 5848 5847 5845 5844 5842 5840 5839 5837
5800 5806 5812 5813 5817 5821 5824 5826 5829 5832 5834 5837 5839 5842 5844 5846 5847 5848 5850 5850 5851 5851 5851 5851 5851 5852 5851 5851 5851 5851 5850 5850 5849 5848 5847 5846 5844 5843 5841 5840 5838 5836 5835 5833
5795 5801 5803 5807 5811 5815 5818 5821 5824 5827 5830 5832 5835 5837 5839 5841 5843 5844 5845 5846 5847 5847 5847 5847 5847 5847 5847 5847 5847 5847 5846 5845 5845 5844 5843 5841 5840 5838 5837 5835 5833 5831 5830 5828
5788 5793 5797 5801 5806 5809 5813 5816 5819 5822 5825 5827 5830 5832 5834 5836 5838 5839 5841 5841 5842 5843 5843 5843 5843 5843 5842 5842 5843 5842 5842 5841 5840 5839 5838 5836 5835 5833 5832 5830 5828 5826 5825 5823
5782 5787 5791 5796 5800 5803 5807 5810 5813 5816 5819 5822 5824 5827 5829 5831 5833 5834 5835 5836 5837 5838 5838 5838 5838 5838 5838 5838 5837 5837 5837 5836 5835 5834 5832 5831 5829 5828 5826 5825 5823 5821 5819 5817
5776 5780 5785 5789 5793 5797 5801 5804 5808 5811 5814 5816 5819 5821 5824 5826 5827 5829 5830 5831 5832 5832 5833 5833 5833 5833 5833 5833 5832 5832 5831 5831 5829 5828 5827 5825 5824 5822 5820 5819 5817 5815 5813 5811
5769 5773 5778 5783 5787 5791 5795 5798 5802 5805 5808 5811 5813 5816 5818 5820 5822 5823 5824 5825 5826 5827 5827 5827 5828 5828 5828 5827 5827 5826 5826 5825 5824 5822 5821 5820 5818 5816 5815 5813 5811 5809 5807 5804
5762 5767 5772 5776 5780 5785 5789 5792 5795 5799 5802 5804 5807 5809 5812 5814 5816 5817 5818 5819 5820 5820 5821 5821 5821 5822 5822 5822 5821 5821 5820 5819 5817 5816 5815 5813 5812 5810 5808 5806 5804 5802 5799 5797
5756 5761 5765 5769 5774 5778 5782 5786 5789 5792 5795 5798 5800 5803 5805 5808 5810 5811 5812 5813 5813 5814 5815 5815 5815 5816 5816 5816 5815 5814 5813 5812 5811 5810 5809 5807 5805 5803 5801 5799 5797 5795 5792 5789
5749 5754 5758 5763 5767 5771 5776 5780 5783 5786 5789 5792 5794 5797 5799 5801 5803 5804 5806 5806 5807 5807 5808 5808 5809 5809 5809 5809 5809 5808 5807 5806 5805 5804 5802 5800 5798 5796 5794 5792 5789 5787 5784 5782
5742 5747 5752 5756 5761 5765 5769 5773 5776 5779 5782 5785 5788 5790 5793 5795 5797 5798 5799 5800 5800 5801 5802 5802 5803 5803 5803 5803 5802 5801 5800 5799 5798 5797 5795 5793 5791 5789 5787 5784 5782 5779 5777 5774
5736 5741 5746 5750 5754 5758 5762 5766 5770 5773 5775 5778 5781 5783 5786 5788 5790 5792 5793 5794 5794 5795 5795 5796 5796 5796 5796 5796 5795 5794 5793 5792 5791 5790 5788 5786 5784 5782 5779 5777 5774 5772 5769 5766
5730 5735 5739 5744 5748 5752 5756 5760 5763 5766 5769 5772 5774 5777 5779 5781 5783 5785 5786 5787 5788 5788 5789 5789 5789 5790 5789 5789 5788 5788 5787 5785 5784 5783 5781 5779 5777 5774 5772 5769 5767 5764 5761 5758
5725 5730 5734 5738 5743 5747 5750 5753 5757 5760 5763 5765 5768 5771 5773 5775 5777 5778 5779 5780 5781 5782 5782 5782 5783 5783 5782 5782 5782 5781 5780 5778 5777 5775 5774 5772 5769 5767 5765 5762 5759 5756 5754 5751
5720 5725 5729 5733 5737 5741 5744 5748 5751 5754 5757 5760 5762 5765 5767 5769 5770 5772 5773 5774 5775 5775 5776 5776 5776 5776 5776 5775 5775 5774 5773 5771 5770 5769 5767 5765 5763 5760 5758 5755 5752 5749 5746 5744
5716 5720 5724 5728 5732 5736 5739 5743 5746 5749 5751 5754 5756 5759 5761 5763 5764 5766 5767 5768 5768 5769 5769 5770 5770 5770 5769 5769 5768 5767 5766 5765 5764 5762 5760 5758 5756 5754 5751 5749 5746 5743 5740 5736
5712 5716 5720 5724 5728 5732 5735 5738 5741 5743 5746 5749 5751 5753 5755 5757 5758 5759 5760 5761 5762 5763 5763 5764 5764 5764 5764 5763 5762 5761 5760 5759 5758 5756 5754 5752 5750 5747 5745 5742 5739 5736 5733 5730
5709 5713 5717 5721 5724 5727 5730 5733 5736 5739 5741 5743 5746 5748 5750 5751 5752 5753 5754 5755 5756 5757 5758 5758 5758 5758 5758 5757 5756 5755 5754 5753 5751 5749 5747 5745 5743 5740 5738 5735 5732 5729 5726 5723
5706 5710 5713 5717 5720 5723 5726 5729 5732 5734 5737 5739 5741 5743 5745 5746 5748 5748 5749 5750 5751 5752 5752 5752 5752 5752 5752 5751 5750 5749 5748 5747 5745 5743 5741 5738 5736 5733 5731 5728 5725 5722 5719 5716
5703 5707 5710 5714 5717 5720 5722 5725 5727 5730 5732 5734 5736 5738 5740 5742 5743 5744 5745 5746 5746 5747 5747 5747 5746 5746 5746 5745 5745 5743 5742 5741 5739 5737 5734 5732 5729 5727 5724 5721 5718 5715 5712 5709
5700 5704 5707 5711 5714 5717 5719 5722 5724 5726 5729 5731 5733 5735 5736 5737 5739 5740 5740 5741 5741 5741 5741 5741 5741 5741 5740 5740 5739 5738 5736 5734 5732 5730 5728 5725 5723 5720 5717 5714 5711 5708 5705 5702